Location: De Greiden
(52.9496°N, 5.9137°E)
Time: 23:30:11
(UTC+00:00)

SJ 16-02 - Pass Details

Date: 24 January 2021
Orbit: 606 x 616 km, 75.0° (Epoch: 01 March)

Event Time Altitude Azimuth Distance (km) Brightness Sun altitude
Rises 18:10:30 0° 212° (SSW) 2,866 5.4 -18.3°
Reaches altitude 10° 18:12:46 10° 216° (SW) 1,965 4.5 -18.7°
Maximum altitude 18:17:06 62° 297° (WNW) 691 1.8 -19.3°
Enters shadow 18:20:29 17° 16° (NNE) 1,588 3.2 -19.8°
